{"data":{"norad_id":66813,"epoch":"2026-09-19T21:25:56.807040Z","epoch_age_seconds":138864,"freshness":"FRESH","line1":"1 66813U 25278Y   26262.89301860  .00011208  00000+0  41604-3 0  9990","line2":"2 66813  43.0010  97.2845 0001507 269.8155  90.2524 15.27590577 44916","mean_motion":15.27590577,"eccentricity":0.0001507,"inclination_deg":43.001,"raan_deg":97.2845,"arg_perigee_deg":269.8155,"mean_anomaly_deg":90.2524,"bstar":0.00041604,"rev_number":4491,"period_min":94.266096012976,"perigee_km":481.98344890751,"apogee_km":484.05140085117,"semimajor_km":6861.1544248793,"source":"CELESTRAK","updated_at":"2026-09-21T09:00:36.017935Z"}}